Regional Weather Roundup
Issued by NWS

Home | Current Version | Previous Version | Text Only | Print | Product List | Glossary On
Versions: 1 2 3 4 5 6 7 8 9 10 11 12 13 14 15 16 17 18 19 20 21 22 23 24 25 26 27 28 29 30 31 32 33 34 35 36 37 38 39 40 41 42 43 44 45 46 47 48 49 50
000
ASUS43 KMPX 111910
RWRMN
WEATHER ROUNDUP FOR MINNESOTA
NATIONAL WEATHER SERVICE TWIN CITIES/CHANHASSEN MN
100 PM CST MON DEC 11 2017


NOTE: "FAIR" INDICATES FEW OR NO CLOUDS BELOW 12,000 FEET WITH NO
SIGNIFICANT WEATHER AND/OR OBSTRUCTIONS TO VISIBILITY. N/A MEANS
CURRENT SKY AND/OR WEATHER CONDITIONS ARE NOT AVAILABLE.

MNZ060>063-068>070-112000-
   Twin Cities Metro

CITY           SKY/WX    TMP DP  RH WIND       PRES   REMARKS
TWIN CITIES    CLOUDY    35  30  82 N22G31    29.83R WCI  23
ST PAUL        CLOUDY    35  29  78 NW25G31   29.83R WCI  23
CRYSTAL        CLOUDY    34  25  69 N21G32    29.83R WCI  22
BLAINE         CLOUDY    36  28  75 NW23G32   29.84R
LAKEVILLE      CLOUDY    34  30  86 NW16      29.81R WCI  23
EDEN PRAIRIE   CLOUDY    36  29  75 N20G28    29.82R
SOUTH ST PAUL  CLOUDY    35  30  82 N14       29.82R WCI  26
LAKE ELMO      CLOUDY    34  30  86 N15       29.82R WCI  24
$$
MNZ001>005-007-008-013>017-022>024-027-028-112000-
   Northwest Minnesota

CITY           SKY/WX    TMP DP  RH WIND       PRES   REMARKS
BEMIDJI        FLURRIES  21  14  74 N14G21    30.02R WCI   8
HALLOCK        PTSUNNY   14   9  79 N25       30.22R HAZE    WCI  -5
ROSEAU         FLURRIES  18  12  79 N20       30.13R WCI   1
WARROAD        PTSUNNY   19  10  68 NW16G25   30.11R HAZE    WCI   5
THIEF RVR FALL FLURRIES  16  10  77 N23G30    30.15R WCI  -2
CROOKSTON      PTSUNNY   16  10  79 N29G35    30.19R HAZE    WCI  -4
FOSSTON        LGT SNOW  19  12  73 NW23G29   30.09R WCI   2
DETROIT LAKES  FLURRIES  23  18  80 N26G36    30.07R WCI   6
MOORHEAD       LGT RAIN  19  16  86 N28G37    30.16R WCI   1
PARK RAPIDS    CLOUDY    23  16  74 N22G30    29.99R WCI   8
MAHNOMEN       LGT SNOW  20  16  83 N20G25    30.09R WCI   4
$$
MNZ006-009>011-018-025>026-112000-
   North Central Minnesota

CITY           SKY/WX    TMP DP  RH WIND       PRES   REMARKS
BAUDETTE       PTSUNNY   18  10  71 NW20G29   30.05R WCI   2
FLAG ISLAND    LGT SNOW  16   9  73 NW24      30.09R WCI  -3
INTL FALLS     CLOUDY    18   9  68 N18G28    29.99R WCI   2
WASKISH        FLURRIES  19  12  73 NW15G24   30.04R WCI   5
LONGVILLE      CLOUDY    23  18  80 NW7       29.96R WCI  15
GRAND RAPIDS   FLURRIES  22  16  78 N23G30    29.93R WCI   6
CRANE LAKE     FLURRIES  18  10  73 N10G23    29.96R WCI   6
ORR            CLOUDY    19  10  68 NW12G18   29.91R WCI   7
COOK           CLOUDY    19  12  73 N13G23    29.92R WCI   7
WALKER         CLOUDY    21  14  73 NW18G32   29.99R WCI   6
$$
MNZ012-019>021-037-112000-
   Northeast Minnesota

CITY           SKY/WX    TMP DP  RH WIND       PRES   REMARKS
DULUTH         FLURRIES  22  19  89 N20G30    29.82R WCI   7
ELY            FLURRIES  18  12  79 N15G28    29.85R WCI   3
HIBBING        CLOUDY    20  15  81 N16G29    29.89R HAZE    WCI   6
DULUTH HARBOR  CLOUDY    28  25  86 N23G31    29.87R WCI  14
TWO HARBORS    CLOUDY    28  19  69 N7G18     29.80R WCI  21
GRAND MARAIS     N/A     24  14  65 VRB7G22   29.79  WCI  16
G MARAIS ARPRT LGT SNOW  18   9  68 NW9G22    29.71R WCI   6
$$
MNZ029>031-032-039>041-046>048-054>057-064-112000-
   West Central Minnesota

CITY           SKY/WX    TMP DP  RH WIND       PRES   REMARKS
FERGUS FALLS   CLOUDY    23  18  80 N23G39    30.10R WCI   7
WHEATON        CLOUDY    27  19  74 NW26G38   30.14R WCI  11
MORRIS         CLOUDY    27  21  80 N33G41    30.04R WCI   9
ALEXANDRIA     CLOUDY    27  22  81 N23G30    29.99R WCI  12
ELBOW LAKE     CLOUDY    24  20  84 NW26G35   30.06R FOG     WCI   7
WADENA         CLOUDY    25  18  74 N20G28    29.99R WCI  11
GLENWOOD       CLOUDY    28  25  86 NW22G29   29.98R WCI  15
APPLETON       CLOUDY    28  23  80 N30G40    30.05R WCI  13
BENSON         CLOUDY    28  25  86 N26G39    30.02R WCI  13
ORTONVILLE     CLOUDY    27  21  80 N29G44    30.08R WCI  11
MADISON        CLOUDY    32  27  80 NW32G38   30.06R WCI  17
WILLMAR        CLOUDY    32  28  86 NW30      29.97R WCI  18
$$
MNZ033>034-036-042>043-049>051-058-059-112000-
   Central Minnesota

CITY           SKY/WX    TMP DP  RH WIND       PRES   REMARKS
ST CLOUD       CLOUDY    32  26  78 N22G36    29.89R WCI  19
SAUK CENTRE    CLOUDY    30  24  80 N21G29    29.96R WCI  17
PAYNESVILLE    CLOUDY    33  29  86 NW15G26   29.94R WCI  22
AITKIN         CLOUDY    25  19  80 NW10G25   29.90R WCI  15
PINE RIVER     CLOUDY    21  16  79 N15G29    29.99R WCI   8
BRAINERD       CLOUDY    27  20  75 N22G32    29.94R WCI  13
STAPLES        CLOUDY    25  19  80 NW17G24   29.97R WCI  11
LONG PRAIRIE   CLOUDY    28  25  86 NW14G26   29.95R WCI  17
LITTLE FALLS   CLOUDY    30  21  69 N8G21     29.94R WCI  23
LITCHFIELD     CLOUDY    36  30  80 NW23G31   29.91R
BUFFALO        CLOUDY    34  28  77 NW13G25   29.88R WCI  25
MAPLE LAKE     CLOUDY    35  30  82 N20G30    29.89R WCI  24
HUTCHINSON     CLOUDY    36  31  80 NW29G35   29.89R
$$
MNZ037-044-045-052-053-112000-
   East Central Minnesota

CITY           SKY/WX    TMP DP  RH WIND       PRES   REMARKS
PRINCETON      CLOUDY    34  27  75 NW12G22   29.88R WCI  25
MORA           CLOUDY    32  27  80 N13G24    29.88R WCI  22
CAMBRIDGE      CLOUDY    36  25  64 NW12G18   29.86R
RUSH CITY      CLOUDY    32  25  77 N16G23    29.85R WCI  21
MOOSE LAKE     CLOUDY    28  23  80 N17G26    29.84R WCI  16
HINCKLEY       CLOUDY    32  27  80 N17G23    29.85R WCI  21
CLOQUET        CLOUDY    25  19  80 NW18G31   29.84R WCI  11
MCGREGOR       CLOUDY    27  23  86 NW16G26   29.90R WCI  14
$$
MNZ071>073-080-081-089-090-097-098-112000-
   Southwest Minnesota

CITY           SKY/WX    TMP DP  RH WIND       PRES   REMARKS
MONTEVIDEO     CLOUDY    28  25  86 N29G41    30.02R WCI  13
GRANITE FALLS  CLOUDY    32  27  83 NW26G39   30.01R WCI  18
CANBY          CLOUDY    31  26  81 NW24G38   30.06R WCI  17
MARSHALL       CLOUDY    30  26  85 N36G44    29.99R WCI  14
REDWOOD FALLS  CLOUDY    34  27  75 NW16G32   29.93R WCI  24
OLIVIA         CLOUDY    34  30  86 NW24G31   29.93R WCI  21
PIPESTONE      CLOUDY    32  27  80 N24G35    29.99R WCI  19
WINDOM           N/A     32  19  59 NW30G38   29.90R WCI  18
WORTHINGTON    CLOUDY    31  28  89 N37G46    29.95R WCI  15
JACKSON        CLOUDY    32  30  93 MISG      29.91R
TRACY          CLOUDY    32  29  90 N24G38    29.97R WCI  18
SLAYTON        CLOUDY    30  28  90 N32G40    29.96R WCI  15
$$
MNZ065>067-074>077-082>085-091>093-112000-
   South Central Minnesota

CITY           SKY/WX    TMP DP  RH WIND       PRES   REMARKS
MANKATO        CLOUDY    36  31  82 NW20G25   29.85R
NEW ULM        CLOUDY    36  30  80 NW20      29.88R
ST JAMES       CLOUDY    34  32  93 NW22G36   29.90R WCI  22
FAIRMONT       LGT RAIN  34  32  92 NW26      29.88R WCI  21
GLENCOE        CLOUDY    37  32  81 NW17G26   29.86R
FARIBAULT      CLOUDY    36  30  80 NW12G18   29.82R
OWATONNA       CLOUDY    34  32  93 NW16      29.81R WCI  23
WASECA         CLOUDY    34  32  93 NW14G22   29.83R WCI  24
$$
MNZ078>079-086>088-094>096-112000-
   Southeast Minnesota

CITY           SKY/WX    TMP DP  RH WIND       PRES   REMARKS
ROCHESTER      LGT RAIN  33  32  96 NW15      29.75R WCI  23
RED WING       CLOUDY    34  28  80 NW7       29.79R WCI  28
STANTON        CLOUDY    35  31  85 N17G23    29.80R WCI  25
DODGE CENTER   LGT SNOW  34  30  86 NW20      29.78R WCI  22
WINONA         CLOUDY    32  30  93 NW3       29.77R
PRESTON        CLOUDY    33  31  94 NW13      29.74R WCI  23
$$
ABBREVIATIONS USED IN REMARKS
   TC - TEMPERATURES IN CELSIUS
  WCI - WIND CHILL INDEX
   HX - HEAT INDEX
  VSB - VISIBILITY
$$




USA.gov is the U.S. government's official web portal to all federal, state and local government web resources and services.